EW9831 Weather Reports


time (UTC)temp
C
wind
direction
speed
KPH
gust
KPH
rain 1hr
cm
rain 24hr
cm
rain mn
cm
humidity
%
barometer
mb
20181019110602 23 10 12.9 12.9 0.00 0.00 0.00 53 1013.8
20181019110103 23 10 12.9 12.9 0.00 0.00 0.00 54 1013.8
20181019105603 23 10 12.9 12.9 0.00 0.00 0.00 54 1013.8
20181019105103 22 10 12.9 12.9 0.00 0.00 0.00 56 1014.0
20181019104602 22 340 11.3 11.3 0.00 0.00 0.00 56 1014.0
20181019104103 22 340 11.3 11.3 0.00 0.00 0.00 56 1014.0
20181019103602 22 340 11.3 11.3 0.00 0.00 0.00 56 1014.0
20181019103102 22 340 11.3 11.3 0.00 0.00 0.00 58 1014.0
20181019102602 22 340 11.3 11.3 0.00 0.00 0.00 58 1014.0
20181019101602 21 0 8.0 8.0 0.00 0.00 0.00 58 1014.1
20181019101103 21 0 8.0 8.0 0.00 0.00 0.00 58 1014.0
20181019094602 20 20 8.0 8.0 0.00 0.00 0.00 60 1013.9
20181019094102 20 20 8.0 8.0 0.00 0.00 0.00 60 1013.9
20181019093603 20 20 8.0 8.0 0.00 0.00 0.00 60 1013.9
20181019091602 19 20 9.7 9.7 0.00 0.00 0.00 64 1013.8
20181019090602 18 20 9.7 9.7 0.00 0.00 0.00 66 1013.6
20181019083102 17 20 14.5 14.5 0.00 0.00 0.00 69 1013.7
20181019082602 17 20 14.5 14.5 0.00 0.00 0.00 69 1013.7
20181019082103 16 20 14.5 14.5 0.00 0.00 0.00 70 1013.6
20181019081602 16 0 14.5 14.5 0.00 0.00 0.00 70 1013.6
20181019081102 16 0 14.5 14.5 0.00 0.00 0.00 72 1013.4
20181019080603 16 0 14.5 14.5 0.00 0.00 0.00 72 1013.4
20181019080103 16 0 14.5 14.5 0.00 0.00 0.00 73 1013.1
20181019075603 16 0 14.5 14.5 0.00 0.00 0.00 73 1013.1
20181019075102 15 0 14.5 14.5 0.00 0.00 0.00 74 1012.8
20181019074603 15 20 11.3 11.3 0.00 0.00 0.00 74 1012.8
20181019074102 15 20 11.3 11.3 0.00 0.00 0.00 74 1012.8
20181019073603 15 20 11.3 11.3 0.00 0.00 0.00 74 1012.8
20181019073102 15 20 11.3 11.3 0.00 0.00 0.00 74 1013.0
20181019072602 15 20 11.3 11.3 0.00 0.00 0.00 74 1013.0
20181019071603 15 350 19.3 19.3 0.00 0.00 0.00 73 1012.9
20181019070602 15 350 19.3 19.3 0.00 0.00 0.00 73 1012.5
20181019070103 15 350 19.3 19.3 0.00 0.00 0.00 74 1012.5
20181019065602 15 350 19.3 19.3 0.00 0.00 0.00 74 1012.5
20181019064602 15 20 14.5 14.5 0.00 0.00 0.00 74 1012.1
20181019063603 15 20 14.5 14.5 0.00 0.00 0.00 74 1012.1
20181019063103 15 20 14.5 14.5 0.00 0.00 0.00 74 1012.0
20181019062602 15 20 14.5 14.5 0.00 0.00 0.00 74 1012.0
20181019062103 15 20 14.5 19.3 0.00 0.00 0.00 74 1012.0
20181019061102 15 40 19.3 19.3 0.00 0.00 0.00 74 1012.1
20181019060602 15 40 19.3 19.3 0.00 0.00 0.00 74 1012.1
20181019060104 15 40 19.3 19.3 0.00 0.00 0.00 74 1012.0
20181019054603 15 40 16.1 16.1 0.00 0.00 0.00 72 1011.9
20181019053603 15 40 16.1 16.1 0.00 0.00 0.00 72 1011.9
20181019052602 15 40 16.1 16.1 0.00 0.00 0.00 72 1011.8
20181019051603 15 0 9.7 9.7 0.00 0.00 0.00 72 1011.6
20181019045602 15 0 9.7 9.7 0.00 0.00 0.00 72 1011.8
20181019043603 16 20 12.9 12.9 0.00 0.00 0.00 71 1012.0
20181019043102 16 20 12.9 12.9 0.00 0.00 0.00 71 1012.1
20181019042602 16 20 12.9 12.9 0.00 0.00 0.00 71 1012.1
20181019042102 16 20 12.9 12.9 0.00 0.00 0.00 70 1012.1
20181019041603 16 0 12.9 12.9 0.00 0.00 0.00 70 1012.1
20181019040603 16 0 12.9 12.9 0.00 0.00 0.00 70 1012.1
20181019040103 16 0 12.9 12.9 0.00 0.00 0.00 70 1012.2
20181019035603 16 0 12.9 12.9 0.00 0.00 0.00 70 1012.2
20181019035103 17 0 12.9 16.1 0.00 0.00 0.00 69 1012.3
20181019033103 17 20 16.1 16.1 0.00 0.00 0.00 67 1012.4
20181019032603 17 20 16.1 16.1 0.00 0.00 0.00 67 1012.4
20181019032103 17 20 16.1 16.1 0.00 0.00 0.00 66 1012.2
20181019031603 17 20 12.9 12.9 0.00 0.00 0.00 66 1012.2
20181019031103 17 20 12.9 12.9 0.00 0.00 0.00 66 1012.2
20181019025604 17 20 12.9 12.9 0.00 0.00 0.00 67 1012.2
20181019025103 16 20 12.9 12.9 0.00 0.00 0.00 69 1012.2
20181019024603 16 10 12.9 12.9 0.00 0.00 0.00 69 1012.2
20181019023604 16 10 12.9 12.9 0.00 0.00 0.00 69 1012.2
20181019023103 16 10 12.9 12.9 0.00 0.00 0.00 71 1012.3
20181019022603 16 10 12.9 12.9 0.00 0.00 0.00 71 1012.3
20181019022103 16 10 12.9 12.9 0.00 0.00 0.00 71 1012.3
20181019021603 16 20 11.3 11.3 0.00 0.00 0.00 72 1012.3
20181019021103 16 20 11.3 11.3 0.00 0.00 0.00 72 1012.3
20181019015603 17 20 11.3 11.3 0.00 0.00 0.00 70 1012.4
20181019015103 17 20 11.3 12.9 0.00 0.00 0.00 68 1012.5
20181019014603 17 0 12.9 12.9 0.00 0.00 0.00 68 1012.5
20181019014103 17 0 12.9 12.9 0.00 0.00 0.00 68 1012.5
20181019013603 17 0 12.9 12.9 0.00 0.00 0.00 68 1012.5
20181019013102 17 0 12.9 12.9 0.00 0.00 0.00 68 1012.6
20181019012603 17 0 12.9 12.9 0.00 0.00 0.00 68 1012.6
20181019012103 17 0 12.9 14.5 0.00 0.00 0.00 68 1012.6
20181019011602 17 350 14.5 14.5 0.00 0.00 0.00 69 1012.7
20181019011102 17 350 14.5 14.5 0.00 0.00 0.00 69 1012.7
20181019010603 17 350 14.5 14.5 0.00 0.00 0.00 69 1012.8
20181019010103 17 350 14.5 14.5 0.00 0.00 0.00 69 1012.8
20181019005603 17 350 14.5 14.5 0.00 0.00 0.00 70 1012.8
20181019004102 16 350 14.5 14.5 0.00 0.00 0.00 74 1012.8
20181019003102 16 350 14.5 14.5 0.00 0.00 0.00 74 1012.8
20181019000603 16 20 12.9 12.9 0.00 0.00 0.00 76 1012.9
20181018235603 16 20 12.9 12.9 0.00 0.00 0.00 76 1012.9
20181018235103 16 20 12.9 14.5 0.00 0.00 0.00 75 1012.8
20181018234103 16 0 14.5 14.5 0.00 0.00 0.00 75 1012.8
20181018233603 16 0 14.5 14.5 0.00 0.00 0.00 75 1012.8
20181018232103 16 0 14.5 14.5 0.00 0.00 0.00 75 1013.0
20181018230103 17 10 11.3 11.3 0.00 0.00 0.00 74 1013.1
20181018225603 17 10 11.3 11.3 0.00 0.00 0.00 74 1013.1
20181018224103 17 10 12.9 12.9 0.00 0.00 0.00 73 1013.1
20181018222103 17 10 12.9 12.9 0.00 0.00 0.00 72 1013.0
20181018221603 17 0 12.9 12.9 0.00 0.00 0.00 72 1012.9
20181018221103 17 0 12.9 12.9 0.00 0.00 0.00 71 1012.8
20181018215603 18 0 12.9 12.9 0.00 0.00 0.00 70 1012.8
20181018215103 18 0 12.9 12.9 0.00 0.00 0.00 68 1012.4
20181018213604 18 340 11.3 11.3 0.00 0.00 0.00 68 1012.4
20181018213103 18 340 11.3 11.3 0.00 0.00 0.00 68 1012.4
20181018212603 18 340 11.3 11.3 0.00 0.00 0.00 69 1012.3
20181018211603 18 350 8.0 8.0 0.00 0.00 0.00 69 1012.3
20181018211103 18 350 8.0 8.0 0.00 0.00 0.00 69 1012.3
20181018204603 18 350 12.9 12.9 0.00 0.00 0.00 70 1012.0
20181018204103 18 350 12.9 12.9 0.00 0.00 0.00 70 1012.0
20181018203604 18 350 12.9 12.9 0.00 0.00 0.00 70 1012.0
20181018203103 18 350 12.9 12.9 0.00 0.00 0.00 70 1012.0
20181018202103 18 350 12.9 16.1 0.00 0.00 0.00 70 1011.8
20181018201603 18 0 16.1 16.1 0.00 0.00 0.00 70 1011.8
20181018200104 18 0 16.1 16.1 0.00 0.00 0.00 70 1011.6
20181018195103 19 0 16.1 16.1 0.00 0.00 0.00 69 1011.3
20181018190104 20 0 19.3 19.3 0.00 0.00 0.00 67 1011.0
20181018184603 20 0 14.5 14.5 0.00 0.00 0.00 66 1010.6
20181018183604 20 0 14.5 14.5 0.00 0.00 0.00 66 1010.6
20181018182603 20 0 14.5 14.5 0.00 0.00 0.00 66 1010.5
20181018181103 21 350 14.5 14.5 0.00 0.00 0.00 65 1010.4
20181018180603 21 350 14.5 14.5 0.00 0.00 0.00 65 1010.3
20181018175603 21 350 14.5 14.5 0.00 0.00 0.00 64 1010.1
20181018175104 22 350 14.5 20.9 0.00 0.00 0.00 63 1010.0
20181018173603 22 0 20.9 20.9 0.00 0.00 0.00 63 1010.0
20181018172603 22 0 20.9 20.9 0.00 0.00 0.00 62 1010.0
20181018165605 22 10 20.9 20.9 0.00 0.03 0.00 60 1009.9
20181018165103 22 10 20.9 20.9 0.00 0.05 0.00 59 1009.9
20181018164603 22 0 20.9 20.9 0.00 0.05 0.00 59 1009.9
20181018164103 22 0 20.9 20.9 0.00 0.05 0.00 59 1009.9
20181018163603 22 0 20.9 20.9 0.00 0.05 0.00 59 1009.9
20181018163103 22 0 20.9 20.9 0.00 0.05 0.00 59 1009.9
20181018162603 22 0 20.9 20.9 0.00 0.05 0.00 58 1009.9
20181018161603 22 340 14.5 40.2 0.00 0.05 0.00 59 1010.0
20181018160603 22 340 14.5 40.2 0.00 0.05 0.00 58 1009.9
20181018160104 22 340 14.5 40.2 0.00 0.05 0.00 58 1009.9
20181018155104 22 340 14.5 40.2 0.00 0.05 0.00 60 1010.1
20181018154103 22 350 20.9 20.9 0.00 0.08 0.00 60 1010.1
20181018152604 22 350 20.9 20.9 0.00 0.10 0.00 60 1010.0
20181018152103 22 350 20.9 20.9 0.00 0.10 0.00 60 1010.0
20181018151104 22 0 19.3 19.3 0.00 0.15 0.00 60 1010.0
20181018150603 22 0 19.3 19.3 0.00 0.15 0.00 60 1010.0
20181018145603 22 0 19.3 19.3 0.00 0.18 0.00 60 1010.1
20181018145103 22 0 19.3 19.3 0.00 0.18 0.00 59 1010.1
20181018144603 22 350 19.3 19.3 0.00 0.25 0.00 59 1010.1
20181018144104 22 350 19.3 19.3 0.00 0.25 0.00 59 1010.1
20181018143603 22 350 19.3 19.3 0.00 0.25 0.00 59 1010.1
20181018143104 22 350 19.3 19.3 0.00 0.25 0.00 59 1010.1
20181018142604 22 350 19.3 19.3 0.00 0.25 0.00 59 1010.2
20181018142104 22 350 19.3 20.9 0.00 0.28 0.00 59 1010.2
20181018141603 22 0 20.9 20.9 0.00 0.28 0.00 59 1010.3
20181018141103 22 0 20.9 20.9 0.00 0.28 0.00 59 1010.3
20181018140604 22 0 20.9 20.9 0.00 0.28 0.00 58 1010.4
20181018135104 23 0 20.9 22.5 0.00 0.28 0.00 58 1010.6
20181018133103 23 350 22.5 22.5 0.00 0.28 0.00 58 1010.6
20181018132604 23 350 22.5 22.5 0.00 0.28 0.00 58 1010.7
20181018132103 23 350 22.5 22.5 0.00 0.28 0.00 58 1010.7
20181018131603 23 0 19.3 19.3 0.00 0.28 0.00 59 1010.7
20181018131104 23 0 19.3 19.3 0.00 0.28 0.00 59 1010.7
20181018130104 23 0 19.3 19.3 0.00 0.28 0.00 59 1010.9
20181018124103 22 0 19.3 19.3 0.00 0.28 0.00 61 1011.3
20181018123104 22 0 19.3 19.3 0.00 0.28 0.00 61 1011.3
20181018122104 22 0 19.3 20.9 0.00 0.28 0.00 64 1011.2
20181018121104 22 0 20.9 20.9 0.00 0.28 0.00 66 1011.3
20181018114604 21 0 19.3 19.3 0.00 0.28 0.00 69 1011.4
20181018114104 21 0 19.3 19.3 0.00 0.28 0.00 69 1011.4
20181018113603 21 0 19.3 19.3 0.00 0.28 0.00 69 1011.4
20181018112603 21 0 19.3 19.3 0.00 0.28 0.00 68 1011.5
20181018112103 21 0 19.3 19.3 0.00 0.28 0.00 68 1011.5
20181018111604 21 10 19.3 19.3 0.00 0.28 0.00 66 1011.5